ARIANE 44LP DEB, 26812

Orbit data source: Space-Track

ARIANE 44LP DEB, 26812 is space debris in HEO originally from a launch on Sun, 11 Dec 1988 UTC launched from the French Guiana (FRGUI). Debris objects in space refer to the collection of defunct objects orbiting the Earth. Examples of debris include non-operational satellites, rocket bodies, and fragments generated from explosions, collisions, or faulty payload assembly.

Loading next visibility...
Identifier
26812, 1988-109P
Orbit
HEO
Country
Flag of FRFR
Related business
Manufacturer
Unknown
Mission
Spacecraft
Bus & Motor
Unknown
Mass
Unknown
Launch date (UTC)
1988-12-11 (38 years ago)
Launch vehicle
Unknown
Launch site
French Guiana (FRGUI)
Object type
Payload
Rocket body
Debris
Shape & HBR
Unknown shape, 1.1 m
Radar Cross Section
Medium (>0.1 m² and <1 m²)

Expand to show TLE details & history
Last TLE update: 2 days ago

TLE from 2 days ago
0 ARIANE 44LP DEB
1 26812U 88109P   26256.06354985 -.00000087  00000-0  00000-0 0  9992
2 26812   6.0387 134.1516 7024459 278.3708 324.1962  2.21740954232145
Epoch: 2026-09-13T01:31Z
TLE epoch observation values (Epoch: 2026-09-13T01:31:30.707Z)
Latitude
2.47991°
Longitude
-84.59849°
Altitude
13,764.138 km
Speed
4.851 km/s
True Right ascension
19h 21m 22s
True Declination
2° 28' 29"
Sunlit
Object was in daylight at epoch
Visualization orbit readout
Latitude
Unknown
Longitude
Unknown
Altitude
Unknown
Speed
Unknown
Apparent Right ascension
Unknown
Apparent Declination
Unknown
Sunlit
N/A
Visualization observer readout
Local Sidereal Time
06:28:57
Azimuth
Unknown
Elevation
Unknown
Doppler factor
Unknown
Orbital elements
Apogee altitude
35,920.792 km
Perigee altitude
1,014.885 km
Semi-major axis
24,845.975 km
Eccentricity
0.70245
Inclination
6.0387°
RAAN
134.1516°
Arg. of periapsis
278.3708°
True anomaly
237.50887°
Mean anomaly
324.1962°
Eccentric anomaly
285.39271°
Mean motion
0.55419 °/min
Orbital period
649.6 mins
BSTAR
0
Loading maneuver chart data...
Computing Atmospheric mass density...
Loading historical data...
Loading historical data...
Loading historical data...
Loading historical data...
Loading historical data...
Loading historical data...
Loading historical data...

Documentation

Showing up to 5 results
|